Weather History for Detroit, MI

Change the Weather History Date:

Tuesday, November 22, 2011

  Actual Average Record
Temperature  
Mean Temperature 34 °F -  
Max Temperature 39 °F 44 °F 66 °F (1999)
Min Temperature 30 °F 33 °F 15 °F (1956)
Degree Days  
Heating Degree Days 30    
Moisture  
Dew Point 34 °F    
Average Humidity 90    
Maximum Humidity 97    
Minimum Humidity 76    
Precipitation  
Precipitation 0.85 in - - ()
Sea Level Pressure  
Sea Level Pressure 30.06 in    
Wind  
Wind Speed 9 mph (NE)    
Max Wind Speed 18 mph    
Max Gust Speed 28 mph    
Visibility 6 miles    
Events Rain    
Averages and records for this station are not official NWS values.
T = Trace of Precipitation, MM = Missing Value Source: NWS Daily Summary

Daily Weather History Graph

Daily Weather History Graph

Search for Another Location

Airport:

Trip Planner

Search our weather history database for the weather conditions in past years. The results will help you decide how hot, cold, wet, or windy it might be!

Date:

Astronomy

Nov. 22, 2011 Rise Set
Actual Time 7:31 AM EST 5:04 PM EST
Civil Twilight 7:00 AM EST 5:35 PM EST
Nautical Twilight 6:25 AM EST 6:09 PM EST
Astronomical Twilight 5:52 AM EST 6:43 PM EST
Moon 4:17 AM EST 3:05 PM EST
Length of Visible Light 10h 35m
Length of Day
9h 33m
Waning Crescent, 9% of the Moon is Illuminated
Nov 22
Waning Crescent
Nov 25
New
Dec 2
First Quarter
Dec 10
Full
Dec 17
Last Quarter

Hourly Weather History & Observations

Time (EST) Temp. Windchill Dew Point Humidity Pressure Visibility Wind Dir Wind Speed Gust Speed Precip Events Conditions
12:53 AM 33.1 °F - 30.0 °F 89% 30.31 in 9.0 mi Calm Calm - N/A   Clear
1:53 AM 30.2 °F 25.4 °F 28.4 °F 93% 30.29 in 8.0 mi NNE 4.6 mph - N/A   Clear
2:53 AM 35.1 °F 30.1 °F 32.0 °F 89% 30.32 in 6.0 mi NE 5.8 mph - N/A   Clear
3:53 AM 35.6 °F 31.7 °F 32.0 °F 87% 30.27 in 7.0 mi NE 4.6 mph - N/A   Clear
4:53 AM 34.0 °F 29.8 °F 32.0 °F 92% 30.28 in 6.0 mi NE 4.6 mph - N/A   Clear
5:34 AM 33.8 °F 27.7 °F 32.0 °F 93% 30.26 in 5.0 mi ENE 6.9 mph - N/A   Partly Cloudy
5:53 AM 35.1 °F 27.9 °F 34.0 °F 96% 30.27 in 6.0 mi ENE 9.2 mph - N/A   Mostly Cloudy
6:37 AM 35.6 °F 28.0 °F 33.8 °F 93% 30.24 in 7.0 mi ENE 10.4 mph - N/A   Scattered Clouds
6:53 AM 35.1 °F 27.4 °F 34.0 °F 96% 30.25 in 7.0 mi ENE 10.4 mph - N/A   Partly Cloudy
7:11 AM 35.6 °F 28.0 °F 33.8 °F 93% 30.23 in 8.0 mi East 10.4 mph - N/A   Mostly Cloudy
7:53 AM 35.6 °F 27.5 °F 33.8 °F 93% 30.25 in 7.0 mi East 11.5 mph 18.4 mph N/A   Overcast
8:53 AM 35.1 °F 25.9 °F 33.1 °F 92% 30.23 in 7.0 mi East 13.8 mph - N/A   Overcast
9:53 AM 36.0 °F 28.0 °F 34.0 °F 93% 30.21 in 8.0 mi ENE 11.5 mph - N/A   Overcast
10:53 AM 37.4 °F 30.3 °F 33.8 °F 87% 30.18 in 9.0 mi ENE 10.4 mph - N/A   Overcast
11:53 AM 37.9 °F 30.0 °F 34.0 °F 86% 30.13 in 10.0 mi ENE 12.7 mph - N/A   Overcast
12:01 PM 37.4 °F 29.3 °F 33.8 °F 87% 30.11 in 10.0 mi ENE 12.7 mph - N/A   Overcast
12:53 PM 37.9 °F 30.5 °F 33.1 °F 83% 30.09 in 10.0 mi NE 11.5 mph - N/A   Overcast
1:26 PM 37.4 °F 29.3 °F 33.8 °F 87% 30.06 in 10.0 mi ENE 12.7 mph - N/A   Overcast
1:53 PM 39.0 °F 32.3 °F 32.0 °F 76% 30.06 in 10.0 mi ENE 10.4 mph 20.7 mph N/A   Overcast
2:49 PM 37.4 °F 29.8 °F 33.8 °F 87% 29.96 in 4.0 mi ENE 11.5 mph - N/A Rain Rain
2:53 PM 37.9 °F 30.9 °F 34.0 °F 86% 29.97 in 4.0 mi ENE 10.4 mph - 0.03 in Rain Light Rain
3:38 PM 37.4 °F 29.3 °F 33.8 °F 87% 29.93 in 4.0 mi ENE 12.7 mph 19.6 mph 0.08 in Rain Rain
3:53 PM 37.9 °F 30.9 °F 34.0 °F 86% 29.94 in 4.0 mi ENE 10.4 mph - 0.12 in Rain Light Rain
4:53 PM 37.9 °F 30.9 °F 35.1 °F 89% 29.93 in 4.0 mi ENE 10.4 mph - 0.19 in Rain Rain
5:01 PM 37.4 °F 30.3 °F 35.6 °F 93% 29.91 in 6.0 mi ENE 10.4 mph 20.7 mph 0.01 in Rain Light Rain
5:53 PM 37.4 °F 28.2 °F 35.6 °F 93% 29.85 in 6.0 mi NE 16.1 mph 24.2 mph N/A Rain Rain
6:01 PM 37.4 °F 28.2 °F 35.6 °F 93% 29.85 in 5.0 mi ENE 16.1 mph 25.3 mph 0.01 in Rain Light Rain
6:53 PM 37.0 °F 27.0 °F 35.1 °F 93% 29.84 in 4.0 mi ENE 18.4 mph 27.6 mph 0.07 in Rain Rain
7:44 PM 37.4 °F 28.9 °F 35.6 °F 93% 29.82 in 4.0 mi NE 13.8 mph 21.9 mph 0.16 in Rain Rain
7:53 PM 37.0 °F 28.9 °F 35.1 °F 93% 29.83 in 4.0 mi NE 12.7 mph - 0.19 in Rain Rain
8:53 PM 36.0 °F 25.6 °F 35.1 °F 97% 29.79 in 5.0 mi NNE 18.4 mph 23.0 mph 0.13 in Rain Light Rain
9:53 PM 37.0 °F 28.9 °F 35.1 °F 93% 29.78 in 5.0 mi NNE 12.7 mph 21.9 mph 0.03 in Rain Light Rain
10:53 PM 37.4 °F 27.5 °F 35.6 °F 93% 29.73 in 6.0 mi NNE 18.4 mph 25.3 mph N/A Rain Light Rain
11:53 PM 37.0 °F 27.0 °F 35.1 °F 93% 29.74 in 4.0 mi NNE 18.4 mph 27.6 mph 0.09 in Rain Rain